This demonstration page uses our WeatherBlox Daily Observations layout. Learn more.

Hourly Observations for August 18, 2016

Temp ( °F °C ) Dew Point ( °F °C ) Humidity (%) Winds ( mph kmh ) Pressure ( in mb ) Visibility ( mi km ) Precip ( " mm )
12:15 am 00:15 Clear 71 21.8 65 18.1 80 80 SSE 6 9 29.94 1014 10 16.09344 0 0
12:35 am 00:35 Clear 71 21.8 63 17.2 75 75 S 6 9 29.94 1014 10 16.09344 0 0
12:55 am 00:55 Clear 73 22.5 61 16.3 68 68 S 9 15 29.94 1014 10 16.09344 0 0
1:15 am 01:15 Clear 72 22.2 61 16 68 68 SSW 7 11 29.94 1014 10 16.09344 0 0
1:35 am 01:35 Clear 72 22.3 60 15.5 66 66 S 7 11 29.94 1014 10 16.09344 0 0
1:55 am 01:55 Clear 71 21.7 60 15.5 68 68 S 6 9 29.94 1014 10 16.09344 0 0
2:15 am 02:15 Clear 71 21.4 59 15.2 68 68 S 5 7 29.91 1013 10 16.09344 0 0
2:35 am 02:35 Clear 69 20.7 59 15.1 70 70 S 7 11 29.91 1013 10 16.09344 0 0
2:55 am 02:55 Clear 69 20.8 58 14.7 68 68 S 6 9 29.91 1013 10 16.09344 0 0
3:15 am 03:15 Clear 69 20.8 58 14.5 67 67 SSW 6 9 29.91 1013 10 16.09344 0 0
3:35 am 03:35 Clear 69 20.7 58 14.2 66 66 SSW 7 11 29.91 1013 10 16.09344 0 0
3:55 am 03:55 Clear 69 20.6 57 14 66 66 SSW 8 13 29.91 1013 10 16.09344 0 0
4:15 am 04:15 Clear 68 20.2 57 13.8 67 67 SSW 8 13 29.91 1013 10 16.09344 0 0
4:35 am 04:35 Clear 68 19.8 57 13.7 68 68 SSW 8 13 29.91 1013 10 16.09344 0 0
4:55 am 04:55 Clear 67 19.7 56 13.6 68 68 SSW 8 13 29.91 1013 10 16.09344 0 0
5:15 am 05:15 Clear 68 19.8 56 13.5 67 67 SSW 8 13 29.91 1013 10 16.09344 0 0
5:35 am 05:35 Clear 67 19.7 56 13.5 68 68 SW 9 15 29.91 1013 10 16.09344 0 0
5:55 am 05:55 Clear 68 20 56 13.3 65 65 SSW 8 13 29.91 1013 10 16.09344 0 0
6:15 am 06:15 Clear 69 20.5 56 13.1 63 63 SSW 7 11 29.91 1013 10 16.09344 0 0
6:35 am 06:35 Clear 68 20 56 13.1 65 65 SW 6 9 29.91 1013 10 16.09344 0 0
6:55 am 06:55 Sunny 67 19.6 56 13.1 66 66 SW 10 17 29.91 1013 10 16.09344 0 0
7:15 am 07:15 Sunny 68 19.9 55 13 65 65 SW 8 13 29.91 1013 10 16.09344 0 0
7:35 am 07:35 Sunny 67 19.7 55 13 65 65 SW 8 13 29.91 1013 10 16.09344 0 0
7:55 am 07:55 Sunny 69 20.4 56 13.2 63 63 SSW 6 9 29.91 1013 10 16.09344 0 0
8:15 am 08:15 Sunny 71 21.5 56 13.2 59 59 SSW 8 13 29.91 1013 10 16.09344 0 0
8:35 am 08:35 Sunny 72 22.4 56 13.3 57 57 SSW 10 17 29.91 1013 10 16.09344 0 0
8:55 am 08:55 Sunny 74 23.4 56 13.4 54 54 SSW 8 13 29.88 1012 10 16.09344 0 0
9:15 am 09:15 Sunny 76 24.4 56 13.5 51 51 SSW 9 15 29.88 1012 10 16.09344 0 0
9:35 am 09:35 Sunny 77 25.2 56 13.4 48 48 SSW 10 17 29.88 1012 10 16.09344 0 0
9:55 am 09:55 Sunny 79 25.9 56 13.2 45 45 SSW 10 17 29.88 1012 10 16.09344 0 0
10:15 am 10:15 Sunny 80 26.7 54 12.3 41 41 SSW 10 17 29.88 1012 10 16.09344 0 0
10:35 am 10:35 Sunny 81 27 55 13 42 42 SW 8 13 29.85 1011 10 16.09344 0 0
10:55 am 10:55 Sunny 82 28 57 13.7 41 41 S 7 11 29.85 1011 10 16.09344 0 0
11:15 am 11:15 Sunny 83 28.6 56 13.2 39 39 SSW 9 15 29.85 1011 10 16.09344 0 0
11:35 am 11:35 Sunny 85 29.2 59 15.1 42 42 S 8 13 29.85 1011 10 16.09344 0 0
11:55 am 11:55 Sunny 84 28.9 59 15.1 43 43 S 9 15 29.85 1011 10 16.09344 0 0
12:15 pm 12:15 Sunny 86 29.8 58 14.7 40 40 S 8 13 29.85 1011 10 16.09344 0 0
12:35 pm 12:35 Sunny 87 30.4 59 14.8 39 39 SSE 8 13 29.85 1011 10 16.09344 0 0
12:55 pm 12:55 Sunny 88 31.1 57 14 35 35 S 12 19 29.83 1010 10 16.09344 0 0
1:15 pm 13:15 Sunny 89 31.9 57 13.8 33 33 S 15 24 29.8 1009 10 16.09344 0 0
1:35 pm 13:35 Sunny 91 32.7 56 13.3 31 31 S 14 22 29.8 1009 10 16.09344 0 0
1:55 pm 13:55 Sunny 91 33 56 13.3 30 30 S 15 24 29.8 1009 10 16.09344 0 0
2:15 pm 14:15 Sunny 92 33.1 56 13.2 30 30 S 16 26 29.8 1009 10 16.09344 0 0
2:35 pm 14:35 Sunny 92 33.6 54 12.2 27 27 S 18 30 29.8 1009 10 16.09344 0 0
2:55 pm 14:55 Sunny 92 33.6 55 12.8 28 28 S 13 20 29.77 1008 10 16.09344 0 0
3:15 pm 15:15 Sunny 93 33.7 56 13.4 29 29 S 14 22 29.77 1008 10 16.09344 0 0
3:35 pm 15:35 Sunny 92 33.4 56 13.2 29 29 S 15 24 29.77 1008 10 16.09344 0 0
3:55 pm 15:55 Sunny 92 33.2 55 13 29 29 S 16 26 29.77 1008 10 16.09344 0 0
4:15 pm 16:15 Sunny 91 33 54 12.4 28 28 S 14 22 29.77 1008 10 16.09344 0 0
4:35 pm 16:35 Sunny 92 33.1 56 13.1 30 30 S 13 20 29.74 1007 10 16.09344 0 0
4:55 pm 16:55 Sunny 92 33.1 55 12.5 28 28 S 13 20 29.74 1007 10 16.09344 0 0
5:15 pm 17:15 Sunny 92 33.1 55 12.6 29 29 S 15 24 29.74 1007 10 16.09344 0 0
5:35 pm 17:35 Sunny 91 33 55 12.7 29 29 S 12 19 29.74 1007 10 16.09344 0 0
5:55 pm 17:55 Sunny 91 32.7 55 13 30 30 S 13 20 29.74 1007 10 16.09344 0 0
6:15 pm 18:15 Sunny 90 32.2 55 12.7 30 30 S 10 17 29.74 1007 10 16.09344 0 0
6:35 pm 18:35 Sunny 90 32.1 55 12.9 31 31 S 12 19 29.71 1006 10 16.09344 0 0
6:55 pm 18:55 Sunny 88 31 57 14.1 36 36 S 9 15 29.71 1006 10 16.09344 0 0
7:15 pm 19:15 Sunny 87 30.5 57 13.9 36 36 S 10 17 29.71 1006 10 16.09344 0 0
7:35 pm 19:35 Sunny 86 29.8 57 14.1 38 38 S 8 13 29.71 1006 10 16.09344 0 0
7:55 pm 19:55 Sunny 83 28.5 59 15 44 44 SSE 6 9 29.74 1007 10 16.09344 0 0
8:15 pm 20:15 Sunny 79 26.3 61 16.2 54 54 SSE 6 9 29.77 1008 10 16.09344 0 0
8:35 pm 20:35 Clear 77 25.1 62 16.5 59 59 SSE 7 11 29.8 1009 10 16.09344 0 0
8:55 pm 20:55 Clear 76 24.5 62 16.5 61 61 SSE 7 11 29.8 1009 10 16.09344 0 0
9:15 pm 21:15 Clear 76 24.5 62 16.4 61 61 SSE 7 11 29.8 1009 10 16.09344 0 0
9:35 pm 21:35 Clear 76 24.2 62 16.5 62 62 SSE 6 9 29.8 1009 10 16.09344 0 0
9:55 pm 21:55 Clear 75 23.7 62 16.5 64 64 SSE 7 11 29.83 1010 10 16.09344 0 0
10:15 pm 22:15 Clear 73 23 62 16.6 67 67 SSE 7 11 29.83 1010 10 16.09344 0 0
10:35 pm 22:35 Clear 74 23.2 62 16.6 67 67 SSE 8 13 29.83 1010 10 16.09344 0 0
10:55 pm 22:55 Clear 74 23.5 62 16.6 65 65 S 8 13 29.83 1010 10 16.09344 0 0
11:15 pm 23:15 Clear 73 23 62 16.6 67 67 S 9 15 29.83 1010 10 16.09344 0 0
11:35 pm 23:35 Clear 73 22.5 62 16.8 70 70 S 7 11 29.83 1010 10 16.09344 0 0
11:55 pm 23:55 Clear 72 22.2 63 17 73 73 S 6 9 29.85 1011 10 16.09344 0 0

Powered by AerisWeather